Regional Weather Roundup
Issued by NWS

Home | Current Version | Previous Version | Text Only | Print | Product List | Glossary Off
Versions: 1 2 3 4 5 6 7 8 9 10 11 12 13 14 15 16 17 18 19 20 21 22 23 24 25 26 27 28 29 30 31 32 33 34 35 36 37 38 39 40 41 42 43 44 45 46 47 48 49 50

896
ASUS45 KCYS 232010
RWRWY

WYOMING REGIONAL WEATHER ROUNDUP
NATIONAL WEATHER SERVICE CHEYENNE WY
100 PM MST TUE JAN 23 2018

NOTE:  "FAIR" INDICATES FEW OR NO CLOUDS BELOW 12,000 FEET
WITH NO SIGNIFICANT WEATHER AND/OR OBSTRUCTIONS TO VISIBILITY.

WYZ001-232100-
YELLOWSTONE NATIONAL PARK

CITY           SKY/WX    TMP DP  RH WIND       PRES   REMARKS
LK YELLOWSTONE   N/A     20  13  74 VRB3      30.20F
W YELLOWSTONE  NOT AVBL

$$
WYZ002>013-054>058-071-098>099-232100-
NORTHERN WYOMING

CITY           SKY/WX    TMP DP  RH WIND       PRES   REMARKS
JACKSON        FAIR      27  17  66 S12       30.24F WCI  17
CODY           FAIR      35   7  31 W18G26    30.16F WCI  24
GREYBULL       FAIR      22  11  62 E3        30.23F
WORLAND        FAIR      22  11  62 CALM      30.22F
SHERIDAN       FAIR      35  18  49 NW13      30.17F WCI  26
BUFFALO        FAIR      34  10  37 N6        30.17F WCI  29
GILLETTE       FAIR      33  17  51 NW18      30.17F WCI  22
HULETT         FAIR      34  18  51 W12       30.16S WCI  25
NEWCASTLE      FAIR      32  19  59 NW16G22   30.18F WCI  21

$$
WYZ014>020-022>026-101>103-232100-
CENTRAL WYOMING

CITY           SKY/WX    TMP DP  RH WIND       PRES   REMARKS
BIG PINEY      FAIR      26  13  57 S5        30.24F WCI  20
PINEDALE       FAIR      25  12  58 NW9       30.23F WCI  15
DUBOIS         FAIR      28   9  43 NW18      30.14F WCI  16
LANDER         FAIR      22  10  60 CALM      30.19S
RIVERTON       FAIR      16   8  71 CALM      30.21F
CASPER         FAIR      25  15  66 SW17      30.21F WCI  12
DOUGLAS        FAIR      28  18  66 W5        30.21F WCI  23

$$
WYZ021-027>030-104>119-232100-
SOUTHERN WYOMING

CITY           SKY/WX    TMP DP  RH WIND       PRES   REMARKS
EVANSTON       CLOUDY    28  21  75 SW13      30.27F WCI  17
FORT BRIDGER   FAIR      29  20  69 W18       30.29F WCI  17
ROCK SPRINGS   FAIR      24  16  71 SW10      30.25F WCI  14
DIXON            N/A     29  17  58 SW10      30.32F WCI  20
RAWLINS        FAIR      24  15  68 SW22      30.23F WCI   9
SARATOGA       FAIR      27  16  63 W18G24    30.25F WCI  13
LARAMIE        FAIR      24  12  60 NW7       30.16F WCI  16
CHEYENNE       FAIR      29  16  58 NW17G28   30.18F WCI  17
TORRINGTON     FAIR      32  20  61 W12       30.22F WCI  23

$$




USA.gov is the U.S. government's official web portal to all federal, state and local government web resources and services.